Regional Weather Roundup
Issued by NWS Green Bay, WI

Home | Current Version | Previous Version | Text Only | Print | Product List | Glossary On
Versions: 1 2 3 4 5 6 7 8 9 10 11 12 13 14 15 16 17 18 19 20 21 22 23 24 25 26 27 28 29 30 31 32 33 34 35 36 37 38 39 40 41 42 43 44 45 46 47 48 49 50
000
ASUS43 KGRB 261001
RWRGRB

NORTH-CENTRAL AND NORTHEAST WISCONSIN REGIONAL WEATHER ROUNDUP
NATIONAL WEATHER SERVICE GREEN BAY WI
500 AM CDT WED JUL 26 2017

WIZ005-009-010>012-018-019-261100-
NORTH CENTRAL WISCONSIN

CITY           SKY/WX    TMP DP  RH WIND       PRES   REMARKS
IRONWOOD       CLOUDY    71  68  90 W8        29.94R
MANITOWISH WTR NOT AVBL
ARBOR VITAE    NOT AVBL
EAGLE RIVER    NOT AVBL
LAND O LAKES   CLOUDY    69  66  89 SW5       29.98F
RHINELANDER    CLOUDY    69  68  96 SW13G24   29.97F
PHILLIPS       CLOUDY    68  68 100 SW7       29.96R
ANTIGO         NOT AVBL
TOMAHAWK       NOT AVBL
MERRILL        NOT AVBL
$$

WIZ013-073-261100-
NORTHEAST WISCONSIN

CITY           SKY/WX    TMP DP  RH WIND       PRES   REMARKS
IRON MOUNTAIN  CLOUDY    69  63  81 SW8       29.94F
MARINETTE      LGT RAIN  68  63  84 SW9       29.99S
$$

WIZ017-030-035>037-045-261100-
CENTRAL WISCONSIN

CITY           SKY/WX    TMP DP  RH WIND       PRES   REMARKS
MEDFORD        NOT AVBL
WAUSAU         CLOUDY    68  67  96 S9        29.99F
MOSINEE        NOT AVBL
MARSHFIELD     CLOUDY    68  65  90 S8        30.01S
WISC RAPIDS    MOCLDY    69  66  90 S6        30.02F
STEVENS POINT  NOT AVBL
WAUPACA        NOT AVBL
SHAWANO        LGT RAIN  67  64  90 S7        29.96F
CLINTONVILLE   CLOUDY   N/A N/A N/A SW8       30.01F
WAUTOMA        CLOUDY    67  63  87 CALM      30.04S
$$

WIZ038-039-048-051-261100-
FOX VALLEY

CITY           SKY/WX    TMP DP  RH WIND       PRES   REMARKS
NWS GREEN BAY  LGT RAIN  68  65  90 S10       30.01F
APPLETON       NOT AVBL
OSHKOSH        CLOUDY    68  60  75 S12       30.02F
FOND DU LAC    CLOUDY    69  58  67 S10       30.03F
$$

WIZ022-050-052-261100-
EAST CENTRAL WISCONSIN

CITY           SKY/WX    TMP DP  RH WIND       PRES   REMARKS
EPHRAIM        NOT AVBL
WASHINGTON ISL NOT AVBL
STURGEON BAY   LGT RAIN  65  62  90 SW13      30.02S
MANITOWOC      NOT AVBL
SHEBOYGAN      CLOUDY    67  61  81 S10       30.04F
$$

LMZ563-521-522-541>543-261100-
LAKESHORE

STATION/POSITION TIME  TEMP    WIND        PRES    VSBY  WAVE
                       AIR SEA DIR/SP/G                  HT/PER
                 (UTC) (F)     (DEG/KT/KT) (MB)    (MI)  (FT/S)
SHEBOYGAN LKSHOR 0900   71     200/ 15/ 17 1017.3F
KEWAUNEE LKSHORE 0930   69     210/  9/ 12 1016.3S
NORTHPORT PIER   0940   66     180/  4/  6 1015.6S
N MID LAKE BUOY  0850   66 66  180/ 19/ 25 1016.2F         3/ 5
S GREEN BAY BUOY 0930   70 72  220/ 16/ 19 1016.2R
SISTER BAY LKSHO 0917   70     230/ 11/ 15   N/A
CHAMBERS ISLAND  0940   70     200/ 11/ 19 1014.6F
MENOMINEE LKSHOR 0930   70     220/ 14/ 18 1015.5R
$$



USA.gov is the U.S. government's official web portal to all federal, state and local government web resources and services.